Regional Weather Roundup
Issued by NWS Charleston, SC

Current Version | Previous Version | Graphics & Text | Print | Product List | Glossary On
Versions: 1 2 3 4 5 6 7 8 9 10 11 12 13 14 15 16 17 18 19 20 21 22 23 24 25 26 27 28 29 30 31 32 33 34 35 36 37 38 39 40 41 42 43 44 45 46 47 48 49 50
000 ASUS42 KCHS 071827 RWRCHS REGIONAL WEATHER ROUNDUP NATIONAL WEATHER SERVICE CHARLESTON SC 100 PM EST WED DEC 07 2016 NOTE: "FAIR" INDICATES FEW OR NO CLOUDS BELOW 12,000 FEET WITH NO SIGNIFICANT WEATHER AND/OR OBSTRUCTIONS TO VISIBILITY. NOT ALL STATIONS ARE QUALITY CONTROLLED. USE DATA WITH CAUTION... ESPECIALLY DEWPOINT OBSERVATIONS. SCZ027-030-031-034>040-042>050-071900- ...SOUTHEAST SOUTH CAROLINA... CITY SKY/WX TMP DP RH WIND PRES REMARKS N CHARLESTON MOSUNNY 60 50 69 CALM 30.05F 6HR MIN TEMP: 51; 6HR MAX TEMP: 58; WATERFRONT PRK N/A 56 52 86 VRB2 30.06F MOUNT PLEASANT FAIR 59 50 72 SE5 30.05F JOHNS ISLAND FAIR 59 50 72 SE6 30.06S PINOPOLIS N/A 54 50 87 NW5 29.98F MONCKS CORNER CLOUDY 59 48 67 SW6 30.05F SUMMERVILLE CLOUDY 54 54 100 CALM 30.07F BEAUFORT MCAS CLOUDY 58 54 86 VRB3 30.05F 6HR MIN TEMP: 54; 6HR MAX TEMP: 58; BEAUFORT ARPT CLOUDY 57 54 88 NE6 30.04F HILTON HEAD IS CLOUDY 61 55 82 N7 30.06F WALTERBORO CLOUDY 55 N/A N/A CALM 30.06F ALLENDALE CLOUDY 55 54 94 CALM 30.04F FOG ...SOUTHERN MIDLANDS AND PEE DEE... CITY SKY/WX TMP DP RH WIND PRES REMARKS GEORGETOWN NOT AVBL KINGSTREE FAIR 59 45 58 NW3 30.04F ORANGEBURG CLOUDY 53 49 86 CALM 30.06F 6HR MIN TEMP: 49; 6HR MAX TEMP: 54; BARNWELL NOT AVBL AIKEN CLOUDY 50 48 93 SE5 30.08F FOG MANNING FAIR 57 46 67 CALM 30.05F COLUMBIA MOSUNNY 57 48 72 SE7 30.05F 6HR MIN TEMP: 50; 6HR MAX TEMP: 56; SUMTER SUNNY 60 45 58 CALM 30.03F 6HR MIN TEMP: 46; 6HR MAX TEMP: 60; FLORENCE SUNNY 60 46 59 CALM 30.05F 6HR MIN TEMP: 44; 6HR MAX TEMP: 60; MYRTLE BEACH SUNNY 61 45 55 N7 30.06F N MYRTLE BEACH SUNNY 61 45 55 NE7 30.03F 6HR MIN TEMP: 46; 6HR MAX TEMP: 61; $$ GAZ063-065-086>088-099>101-113>116-118-119-134>141-150-071900- ...SOUTHEAST GEORGIA... CITY SKY/WX TMP DP RH WIND PRES REMARKS SAVANNAH ARPT CLOUDY 62 53 72 NW5 30.04F 6HR MIN TEMP: 49; 6HR MAX TEMP: 63; HUNTER AAF CLOUDY 63 59 87 CALM 30.01F 6HR MIN TEMP: 53; 6HR MAX TEMP: 64; FORT STEWART PTSUNNY 64 55 72 SW1 30.01F 6HR MIN TEMP: 55; 6HR MAX TEMP: 64; STATESBORO NOT AVBL SYLVANIA CLOUDY N/A N/A N/A CALM 30.05F CLAXTON CLOUDY 64 57 79 SW3 30.03F ...CSRA...CENTRAL AND FAR SOUTHEAST GEORGIA... CITY SKY/WX TMP DP RH WIND PRES REMARKS THOMSON CLOUDY 54 54 100 CALM 30.10F AUGUSTA-BUSH CLOUDY 56 52 86 S3 30.05F FOG 6HR MIN TEMP: 50; 6HR MAX TEMP: 56; AUGUSTA-DANIEL CLOUDY 54 50 86 SE3 30.06F FOG SWAINSBORO FAIR 63 52 67 W6 30.04F VIDALIA MOSUNNY 64 55 72 W6 30.04F EASTMAN CLOUDY 63 44 50 NW5 30.07F HAZLEHURST FAIR 66 56 71 CALM 30.03F ALMA MOSUNNY 66 54 65 SW7 30.03F 6HR MIN TEMP: 47; 6HR MAX TEMP: 66; WAYCROSS SUNNY 71 59 66 SW3 30.03F JESUP MOCLDY 70 61 73 W3 30.03F BAXLEY FAIR 66 59 77 CALM 30.03F BRUNSWICK CLOUDY 68 61 77 SW6 30.04F SAINT SIMONS PTSUNNY 66 56 70 VRB3 30.03F 6HR MIN TEMP: 58; 6HR MAX TEMP: 67; $$ SCZ027-028-034-036>038-045-046-048>050-GAZ119-141-071900- ...LAKE AND SUPPLEMENTAL COASTAL OBSERVATIONS... STATION/POSITION TIME TEMP WIND PRES WAVE SWELL AIR SEA DIR/SP/G HT/PER HT/PER/DIR (UTC) (F) (DEG/KT/KT) (MB) (FT/S) (FT/S/D) WINYAH BAY 1745 56 100/ 4 1017.0F LAKE MURRAY 1750 54 230/ 2/ 2 1017.3F ACE BASIN NERRS 1745 55 CALM 1018.0S FORT PULASKI 1800 59 62 80/ 6/ 8 1017.4 SAPELO ISLAND 1800 66 110/ 2 1017.0 $$ ANZ835-935-AMZ111-154-330-350-352-354-370-450-454-472-071900- ...C-MAN AND BUOY OBSERVATIONS... STATION/POSITION TIME TEMP WIND PRES WAVE SWELL AIR SEA DIR/SP/G HT/PER HT/PER/DIR (UTC) (F) (DEG/KT/KT) (MB) (FT/S) (FT/S/D) BUOY 41004 1750 61 74 10/ 6/ 8 1016.7F 2/ 7 2/130/ 7 BUOY 41008 1650 60 65 30/ 4/ 6 1017.6 2/ 5 2/150/ 5 FOLLY BEACH CMAN 1800 56 260/ 1/ 2 1018.4F CAPERS NEARSHORE 1808 54 62 10/ 2/ 4 1017.5F FRIPP NEARSHORE 1808 56 62 40/ 6/ 8 1017.0F STATION/POSITION TIME TEMP WIND PRES WAVE SWELL AIR SEA DIR/SP/G HT/PER HT/PER/DIR (UTC) (F) (DEG/KT/KT) (MB) (FT/S) (FT/S/D) 5E ST. MARYS GA 1800 66 N/A 2/ 4 FRYING PAN BUOY 1810 56 74 20/ 10/ 16 1016.5 BUOY 41025 1750 55 76 360/ 14/ 19 1015.9F 6/ 9 5/ 80/ 9 CAPE LOOKOUT NC 1800 54 360/ 10/ 12 1015.7F BUOY 41002 1750 71 74 320/ 14/ 16 1014.6F 7/ 8 7/260/ 8 BUOY 41010 NOT AVBL ST AUGUSTINE FL 1800 64 67 40/ 7/ 7 1017.9F $$

USA.gov is the U.S. government's official web portal to all federal, state and local government web resources and services.